{"data":{"norad_id":31698,"epoch":"2026-05-24T14:39:40.005216Z","epoch_age_seconds":108866,"freshness":"FRESH","line1":"1 31698U 07026A   26144.61087969  .00000312  00000+0  18053-4 0  9991","line2":"2 31698  97.4452 152.6536 0001773  80.0092 280.1342 15.19148033 49643","mean_motion":15.19148033,"eccentricity":0.0001773,"inclination_deg":97.4452,"raan_deg":152.6536,"arg_perigee_deg":80.0092,"mean_anomaly_deg":280.1342,"bstar":1.8053e-5,"rev_number":4964,"period_min":94.789972321282,"perigee_km":507.19316442966,"apogee_km":509.63513546743,"semimajor_km":6886.5511499485,"source":"CELESTRAK","updated_at":"2026-05-25T13:38:12.744670Z"}}